time, Switch, Flow(0), Analog(2)
yyyy/mm/dd HH:MM:SS.fff, True=FILTERED|False=TOTAL, L/min, V
2023/07/07 00:00:00.448, True, 4.565, 0.153277
2023/07/07 00:00:00.944, True, 4.720, 0.153201
2023/07/07 00:00:01.440, True, 4.716, 0.153124
2023/07/07 00:00:01.943, True, 4.973, 0.154498
2023/07/07 00:00:02.448, True, 4.644, 0.152590
2023/07/07 00:00:02.944, True, 4.724, 0.155032
2023/07/07 00:00:03.447, True, 4.304, 0.155032
2023/07/07 00:00:03.952, True, 3.980, 0.153506
2023/07/07 00:00:04.448, True, 2.700, 0.154650
2023/07/07 00:00:04.952, True, 1.324, 0.153201
2023/07/07 00:00:05.448, True, 0.674, 0.152209
2023/07/07 00:00:05.952, True, 0.995, 0.154116
2023/07/07 00:00:06.456, True, 0.663, 0.154955
2023/07/07 00:00:06.952, True, 0.674, 0.152667
2023/07/07 00:00:07.456, True, 0.663, 0.153353
2023/07/07 00:00:07.960, True, 0.995, 0.153124
2023/07/07 00:00:08.455, True, 0.674, 0.152285
2023/07/07 00:00:08.960, True, 0.663, 0.152819
2023/07/07 00:00:09.464, True, 0.663, 0.153887
2023/07/07 00:00:09.960, True, 0.674, 0.153277
2023/07/07 00:00:10.464, True, 0.995, 0.152438
2023/07/07 00:00:10.968, True, 0.663, 0.153658
2023/07/07 00:00:11.464, True, 0.674, 0.153658
2023/07/07 00:00:11.968, True, 0.663, 0.154498
2023/07/07 00:00:12.472, True, 0.663, 0.154650
2023/07/07 00:00:12.968, True, 0.674, 0.155718
2023/07/07 00:00:13.472, True, 0.663, 0.155108
2023/07/07 00:00:13.976, True, 0.663, 0.153887
2023/07/07 00:00:14.472, True, 0.674, 0.154803
2023/07/07 00:00:14.975, True, 0.663, 0.153887
2023/07/07 00:00:15.480, True, 0.995, 0.155337
2023/07/07 00:00:15.976, True, 0.674, 0.152819
2023/07/07 00:00:16.480, True, 0.663, 0.153811
2023/07/07 00:00:16.984, True, 0.663, 0.151904
2023/07/07 00:00:17.480, True, 0.674, 0.153887
2023/07/07 00:00:17.984, True, 0.663, 0.156023
2023/07/07 00:00:18.487, True, 0.995, 0.152972
2023/07/07 00:00:18.984, True, 0.674, 0.154269
2023/07/07 00:00:19.488, True, 0.663, 0.152819
2023/07/07 00:00:19.992, True, 0.663, 0.154650
2023/07/07 00:00:20.495, True, 0.664, 0.157015
2023/07/07 00:00:20.992, True, 0.673, 0.154498
2023/07/07 00:00:21.496, True, 0.995, 0.154345
2023/07/07 00:00:21.000, True, 0.663, 0.152285
2023/07/07 00:00:22.496, True, 0.674, 0.153048
2023/07/07 00:00:22.000, True, 0.663, 0.150912
2023/07/07 00:00:23.496, True, 0.674, 0.152819
2023/07/07 00:00:23.000, True, 0.996, 0.153124
2023/07/07 00:00:24.504, True, 0.662, 0.153353
2023/07/07 00:00:24.000, True, 0.674, 0.153277
2023/07/07 00:00:25.504, True, 0.663, 0.154574
2023/07/07 00:00:26.008, True, 0.663, 0.152819
2023/07/07 00:00:26.504, True, 0.674, 0.156100
2023/07/07 00:00:27.008, True, 0.663, 0.154192
2023/07/07 00:00:27.512, True, 0.663, 0.153887
2023/07/07 00:00:28.008, True, 1.011, 0.153201
2023/07/07 00:00:28.512, True, 0.663, 0.152361
2023/07/07 00:00:29.008, True, 0.674, 0.151522
2023/07/07 00:00:29.512, True, 0.663, 0.152590
2023/07/07 00:00:30.016, True, 0.663, 0.152590
2023/07/07 00:00:30.519, True, 0.663, 0.154726
2023/07/07 00:00:31.016, True, 0.675, 0.151598
2023/07/07 00:00:31.520, True, 0.993, 0.153048
2023/07/07 00:00:32.023, True, 0.663, 0.153353
2023/07/07 00:00:32.519, True, 0.674, 0.153582
2023/07/07 00:00:33.024, True, 0.663, 0.153735
2023/07/07 00:00:33.527, True, 0.663, 0.156558
2023/07/07 00:00:34.023, True, 1.011, 0.153658
2023/07/07 00:00:34.527, True, 0.663, 0.153429
2023/07/07 00:00:35.031, True, 0.663, 0.153506
2023/07/07 00:00:35.527, True, 0.674, 0.154498
2023/07/07 00:00:36.031, True, 0.663, 0.152209
2023/07/07 00:00:36.536, True, 0.663, 0.152667
2023/07/07 00:00:37.031, True, 0.674, 0.155261
2023/07/07 00:00:37.535, True, 0.663, 0.151827
2023/07/07 00:00:38.031, True, 0.674, 0.153964
2023/07/07 00:00:38.536, True, 0.995, 0.152667
2023/07/07 00:00:39.039, True, 0.663, 0.154040
2023/07/07 00:00:39.543, True, 0.663, 0.153811
2023/07/07 00:00:40.039, True, 0.674, 0.154650
2023/07/07 00:00:40.543, True, 0.665, 0.155108
2023/07/07 00:00:41.039, True, 0.674, 0.151598
2023/07/07 00:00:41.544, True, 0.662, 0.154192
2023/07/07 00:00:42.047, True, 0.663, 0.152132
2023/07/07 00:00:42.544, True, 0.674, 0.155642
2023/07/07 00:00:43.047, True, 0.663, 0.152667
2023/07/07 00:00:43.552, True, 0.664, 0.152743
2023/07/07 00:00:44.048, True, 0.674, 0.153887
2023/07/07 00:00:44.552, True, 0.994, 0.153811
2023/07/07 00:00:45.056, True, 0.663, 0.153429
2023/07/07 00:00:45.551, True, 0.674, 0.154803
2023/07/07 00:00:46.056, True, 0.663, 0.152819
2023/07/07 00:00:46.552, True, 0.673, 0.152438
2023/07/07 00:00:47.055, True, 0.664, 0.154040
2023/07/07 00:00:47.559, True, 0.663, 0.152972
2023/07/07 00:00:48.055, True, 0.674, 0.155032
2023/07/07 00:00:48.560, True, 0.995, 0.155718
2023/07/07 00:00:49.064, True, 0.663, 0.153887
2023/07/07 00:00:49.560, True, 0.674, 0.152514
2023/07/07 00:00:50.064, True, 0.663, 0.154421
2023/07/07 00:00:50.568, True, 0.662, 0.150988
2023/07/07 00:00:51.064, True, 0.675, 0.154345
2023/07/07 00:00:51.568, True, 0.663, 0.155947
2023/07/07 00:00:52.072, True, 0.664, 0.154955
2023/07/07 00:00:52.567, True, 0.673, 0.153277
2023/07/07 00:00:53.072, True, 0.663, 0.154192
2023/07/07 00:00:53.576, True, 0.663, 0.152667
2023/07/07 00:00:54.072, True, 0.675, 0.152972
2023/07/07 00:00:54.575, True, 0.662, 0.154269
2023/07/07 00:00:55.080, True, 0.663, 0.154269
2023/07/07 00:00:55.576, True, 1.011, 0.154955
2023/07/07 00:00:56.080, True, 0.663, 0.152056
2023/07/07 00:00:56.584, True, 0.663, 0.153964
2023/07/07 00:00:57.080, True, 0.674, 0.154650
2023/07/07 00:00:57.584, True, 0.663, 0.152743
2023/07/07 00:00:58.088, True, 0.663, 0.150759
2023/07/07 00:00:58.584, True, 0.674, 0.153277
2023/07/07 00:00:59.088, True, 0.663, 0.154192
2023/07/07 00:00:59.592, True, 0.663, 0.155947
2023/07/07 00:01:00.088, True, 0.674, 0.154040
2023/07/07 00:01:00.592, True, 0.663, 0.151369
2023/07/07 00:01:01.096, True, 0.995, 0.154192
2023/07/07 00:01:01.592, True, 0.674, 0.153048
2023/07/07 00:01:02.096, True, 0.663, 0.153124
2023/07/07 00:01:02.600, True, 0.663, 0.155108
2023/07/07 00:01:03.096, True, 0.674, 0.153201
2023/07/07 00:01:03.600, True, 0.664, 0.153124
2023/07/07 00:01:04.104, True, 0.994, 0.155108
2023/07/07 00:01:04.600, True, 0.674, 0.154574
2023/07/07 00:01:05.104, True, 0.663, 0.154574
2023/07/07 00:01:05.608, True, 0.664, 0.154803
2023/07/07 00:01:06.103, True, 0.673, 0.153811
2023/07/07 00:01:06.608, True, 0.663, 0.153201
2023/07/07 00:01:07.112, True, 0.663, 0.153582
2023/07/07 00:01:07.608, True, 0.674, 0.153124
2023/07/07 00:01:08.111, True, 0.663, 0.152743
2023/07/07 00:01:08.616, True, 0.663, 0.153811
2023/07/07 00:01:09.112, True, 0.674, 0.153964
2023/07/07 00:01:09.616, True, 0.663, 0.152743
2023/07/07 00:01:10.112, True, 0.674, 0.151904
2023/07/07 00:01:10.616, True, 0.995, 0.154955
2023/07/07 00:01:11.120, True, 0.663, 0.154879
2023/07/07 00:01:11.616, True, 0.674, 0.153048
2023/07/07 00:01:12.120, True, 0.663, 0.154574
2023/07/07 00:01:12.623, True, 0.663, 0.152972
2023/07/07 00:01:13.120, True, 1.010, 0.154726
2023/07/07 00:01:13.624, True, 0.663, 0.153353
2023/07/07 00:01:14.128, True, 0.663, 0.153506
2023/07/07 00:01:14.624, True, 0.674, 0.155337
2023/07/07 00:01:15.128, True, 0.663, 0.153887
2023/07/07 00:01:15.624, True, 0.674, 0.156023
2023/07/07 00:01:16.128, True, 0.995, 0.154879
2023/07/07 00:01:16.632, True, 0.664, 0.154345
2023/07/07 00:01:17.135, True, 0.663, 0.155337
2023/07/07 00:01:17.632, True, 0.674, 0.154421
2023/07/07 00:01:18.136, True, 0.663, 0.154040
2023/07/07 00:01:18.640, True, 0.995, 0.154879
2023/07/07 00:01:19.136, True, 0.674, 0.154040
2023/07/07 00:01:19.640, True, 0.663, 0.154269
2023/07/07 00:01:20.135, True, 0.674, 0.154955
2023/07/07 00:01:20.640, True, 0.663, 0.155413
2023/07/07 00:01:21.144, True, 0.663, 0.156176
2023/07/07 00:01:21.647, True, 0.663, 0.157855
2023/07/07 00:01:22.144, True, 0.674, 0.156786
2023/07/07 00:01:22.648, True, 0.663, 0.156023
2023/07/07 00:01:23.144, True, 0.674, 0.156176
2023/07/07 00:01:23.648, True, 0.663, 0.159228
2023/07/07 00:01:24.152, True, 0.995, 0.156710
2023/07/07 00:01:24.656, True, 0.663, 0.156252
2023/07/07 00:01:25.152, True, 0.674, 0.155718
2023/07/07 00:01:25.656, True, 0.663, 0.156252
2023/07/07 00:01:26.152, True, 0.674, 0.156176
2023/07/07 00:01:26.656, True, 0.663, 0.156634
2023/07/07 00:01:27.160, True, 0.663, 0.157092
2023/07/07 00:01:27.656, True, 0.674, 0.157549
2023/07/07 00:01:28.160, True, 0.663, 0.155566
2023/07/07 00:01:28.664, True, 0.663, 0.160449
2023/07/07 00:01:29.168, True, 0.995, 0.159838
2023/07/07 00:01:29.664, True, 0.674, 0.156252
2023/07/07 00:01:30.168, True, 0.663, 0.158312
2023/07/07 00:01:30.672, True, 0.663, 0.157473
2023/07/07 00:01:31.168, True, 0.674, 0.158618
2023/07/07 00:01:31.672, True, 0.663, 0.155947
2023/07/07 00:01:32.168, True, 0.674, 0.158312
2023/07/07 00:01:32.671, True, 0.663, 0.158465
2023/07/07 00:01:33.176, True, 0.995, 0.158236
2023/07/07 00:01:33.672, True, 0.674, 0.158846
2023/07/07 00:01:34.176, True, 0.663, 0.159915
2023/07/07 00:01:34.680, True, 0.663, 0.155032
2023/07/07 00:01:35.176, True, 0.674, 0.159304
2023/07/07 00:01:35.680, True, 0.663, 0.159609
2023/07/07 00:01:36.184, True, 0.663, 0.159533
2023/07/07 00:01:36.688, True, 0.663, 0.160678
2023/07/07 00:01:37.184, True, 0.674, 0.157015
2023/07/07 00:01:37.688, True, 0.663, 0.158846
2023/07/07 00:01:38.192, True, 0.995, 0.158160
2023/07/07 00:01:38.688, True, 0.674, 0.159304
2023/07/07 00:01:39.192, True, 0.663, 0.158846
2023/07/07 00:01:39.696, True, 0.663, 0.156710
2023/07/07 00:01:40.192, True, 0.674, 0.160525
2023/07/07 00:01:40.696, True, 0.663, 0.159380
2023/07/07 00:01:41.200, True, 0.663, 0.158236
2023/07/07 00:01:41.696, True, 0.674, 0.157702
2023/07/07 00:01:42.200, True, 0.663, 0.158846
2023/07/07 00:01:42.695, True, 1.011, 0.159152
2023/07/07 00:01:43.200, True, 0.663, 0.160143
2023/07/07 00:01:43.704, True, 0.663, 0.158083
2023/07/07 00:01:44.200, True, 0.674, 0.159457
2023/07/07 00:01:44.703, True, 0.663, 0.159228
2023/07/07 00:01:45.208, True, 0.663, 0.160601
2023/07/07 00:01:45.704, True, 0.674, 0.159304
2023/07/07 00:01:46.208, True, 0.663, 0.158846
2023/07/07 00:01:46.712, True, 0.664, 0.159762
2023/07/07 00:01:47.208, True, 0.673, 0.158923
2023/07/07 00:01:47.712, True, 0.995, 0.161440
2023/07/07 00:01:48.216, True, 0.663, 0.158846
2023/07/07 00:01:48.711, True, 0.674, 0.158312
2023/07/07 00:01:49.216, True, 0.663, 0.158236
2023/07/07 00:01:49.720, True, 0.663, 0.159380
2023/07/07 00:01:50.224, True, 0.664, 0.158770
2023/07/07 00:01:50.720, True, 0.673, 0.160372
2023/07/07 00:01:51.224, True, 0.663, 0.159686
2023/07/07 00:01:51.720, True, 1.011, 0.162051
2023/07/07 00:01:52.224, True, 0.663, 0.159075
2023/07/07 00:01:52.728, True, 0.663, 0.160449
2023/07/07 00:01:53.232, True, 0.663, 0.161059
2023/07/07 00:01:53.728, True, 0.674, 0.160449
2023/07/07 00:01:54.232, True, 0.663, 0.159762
2023/07/07 00:01:54.736, True, 0.663, 0.158999
2023/07/07 00:01:55.232, True, 0.674, 0.161288
2023/07/07 00:01:55.735, True, 0.663, 0.160678
2023/07/07 00:01:56.240, True, 0.663, 0.162509
2023/07/07 00:01:56.736, True, 0.674, 0.162280
2023/07/07 00:01:57.240, True, 0.995, 0.161975
2023/07/07 00:01:57.736, True, 0.674, 0.163043
2023/07/07 00:01:58.240, True, 0.663, 0.161364
2023/07/07 00:01:58.744, True, 0.663, 0.161364
2023/07/07 00:01:59.240, True, 0.674, 0.164034
2023/07/07 00:01:59.744, True, 0.663, 0.160067
2023/07/07 00:02:00.248, True, 0.663, 0.161975
2023/07/07 00:02:00.752, True, 0.995, 0.162203
2023/07/07 00:02:01.248, True, 0.674, 0.160143
2023/07/07 00:02:01.752, True, 0.663, 0.163500
2023/07/07 00:02:02.256, True, 0.664, 0.161822
2023/07/07 00:02:02.752, True, 0.673, 0.162280
2023/07/07 00:02:03.256, True, 0.663, 0.159762
2023/07/07 00:02:03.760, True, 0.663, 0.161975
2023/07/07 00:02:04.255, True, 0.675, 0.162966
2023/07/07 00:02:04.759, True, 0.662, 0.160830
2023/07/07 00:02:05.264, True, 0.663, 0.159686
2023/07/07 00:02:05.768, True, 0.663, 0.161288
2023/07/07 00:02:06.264, True, 0.674, 0.161517
2023/07/07 00:02:06.767, True, 0.663, 0.162661
2023/07/07 00:02:07.263, True, 1.011, 0.162966
2023/07/07 00:02:07.767, True, 0.664, 0.161440
2023/07/07 00:02:08.271, True, 0.663, 0.162432
2023/07/07 00:02:08.767, True, 0.674, 0.161059
2023/07/07 00:02:09.271, True, 0.664, 0.160830
2023/07/07 00:02:09.776, True, 0.663, 0.160678
2023/07/07 00:02:10.271, True, 0.674, 0.160143
2023/07/07 00:02:10.775, True, 0.663, 0.161364
2023/07/07 00:02:11.280, True, 0.663, 0.159533
2023/07/07 00:02:11.775, True, 0.674, 0.163195
2023/07/07 00:02:12.279, True, 0.996, 0.159838
2023/07/07 00:02:12.783, True, 0.662, 0.161746
2023/07/07 00:02:13.279, True, 0.674, 0.162966
2023/07/07 00:02:13.784, True, 0.664, 0.161135
2023/07/07 00:02:14.288, True, 0.662, 0.159533
2023/07/07 00:02:14.783, True, 0.674, 0.161440
2023/07/07 00:02:15.288, True, 0.664, 0.160983
2023/07/07 00:02:15.784, True, 1.011, 0.160678
2023/07/07 00:02:16.287, True, 0.662, 0.162509
2023/07/07 00:02:16.792, True, 0.664, 0.160296
2023/07/07 00:02:17.288, True, 0.674, 0.162356
2023/07/07 00:02:17.792, True, 0.663, 0.162280
2023/07/07 00:02:18.295, True, 0.663, 0.163500
2023/07/07 00:02:18.792, True, 1.012, 0.162051
2023/07/07 00:02:19.296, True, 0.663, 0.161593
2023/07/07 00:02:19.800, True, 0.662, 0.161593
2023/07/07 00:02:20.295, True, 0.674, 0.163577
2023/07/07 00:02:20.800, True, 0.664, 0.163348
2023/07/07 00:02:21.304, True, 0.662, 0.164492
2023/07/07 00:02:21.808, True, 0.663, 0.162203
2023/07/07 00:02:22.304, True, 0.675, 0.161593
2023/07/07 00:02:22.808, True, 0.662, 0.163577
2023/07/07 00:02:23.312, True, 0.663, 0.161288
2023/07/07 00:02:23.808, True, 0.674, 0.161288
2023/07/07 00:02:24.312, True, 0.995, 0.163119
2023/07/07 00:02:24.808, True, 0.675, 0.162280
2023/07/07 00:02:25.312, True, 0.662, 0.160296
2023/07/07 00:02:25.815, True, 0.663, 0.161746
2023/07/07 00:02:26.312, True, 0.674, 0.161135
2023/07/07 00:02:26.815, True, 0.663, 0.162509
2023/07/07 00:02:27.320, True, 0.663, 0.163882
2023/07/07 00:02:27.816, True, 0.674, 0.167544
2023/07/07 00:02:28.320, True, 0.664, 0.163577
2023/07/07 00:02:28.824, True, 0.663, 0.166171
2023/07/07 00:02:29.320, True, 0.674, 0.168994
2023/07/07 00:02:29.824, True, 0.995, 0.166171
2023/07/07 00:02:30.328, True, 0.663, 0.161593
2023/07/07 00:02:30.824, True, 0.674, 0.161593
2023/07/07 00:02:31.328, True, 0.663, 0.164340
2023/07/07 00:02:31.832, True, 0.663, 0.164645
2023/07/07 00:02:32.327, True, 0.674, 0.162509
2023/07/07 00:02:32.832, True, 0.663, 0.160449
2023/07/07 00:02:33.335, True, 0.663, 0.163348
2023/07/07 00:02:33.840, True, 0.663, 0.162509
2023/07/07 00:02:34.336, True, 0.674, 0.163272
2023/07/07 00:02:34.840, True, 0.663, 0.163043
2023/07/07 00:02:35.344, True, 0.663, 0.161746
2023/07/07 00:02:35.839, True, 0.674, 0.162051
2023/07/07 00:02:36.344, True, 0.663, 0.164492
2023/07/07 00:02:36.848, True, 0.663, 0.161898
2023/07/07 00:02:37.343, True, 0.674, 0.161746
2023/07/07 00:02:37.848, True, 0.663, 0.162966
2023/07/07 00:02:38.344, True, 0.674, 0.165103
2023/07/07 00:02:38.848, True, 0.663, 0.161593
2023/07/07 00:02:39.352, True, 0.663, 0.160220
2023/07/07 00:02:39.848, True, 0.674, 0.161898
2023/07/07 00:02:40.352, True, 0.663, 0.163043
2023/07/07 00:02:40.856, True, 0.663, 0.162203
2023/07/07 00:02:41.352, True, 0.674, 0.161440
2023/07/07 00:02:41.855, True, 0.663, 0.163119
2023/07/07 00:02:42.352, True, 0.674, 0.161517
2023/07/07 00:02:42.856, True, 0.663, 0.162203
2023/07/07 00:02:43.360, True, 0.663, 0.163043
2023/07/07 00:02:43.856, True, 1.011, 0.163424
2023/07/07 00:02:44.359, True, 0.664, 0.162585
2023/07/07 00:02:44.863, True, 0.663, 0.162585
2023/07/07 00:02:45.367, True, 0.662, 0.161440
2023/07/07 00:02:45.863, True, 0.674, 0.162127
2023/07/07 00:02:46.368, True, 0.663, 0.159762
2023/07/07 00:02:46.872, True, 0.663, 0.163653
2023/07/07 00:02:47.368, True, 0.674, 0.162203
2023/07/07 00:02:47.872, True, 0.663, 0.162356
2023/07/07 00:02:48.368, True, 0.674, 0.165713
2023/07/07 00:02:48.872, True, 0.995, 0.163348
2023/07/07 00:02:49.376, True, 0.663, 0.163348
2023/07/07 00:02:49.871, True, 0.674, 0.161898
2023/07/07 00:02:50.376, True, 0.663, 0.163043
2023/07/07 00:02:50.879, True, 0.663, 0.162966
2023/07/07 00:02:51.376, True, 0.674, 0.163348
2023/07/07 00:02:51.880, True, 0.663, 0.160678
2023/07/07 00:02:52.384, True, 0.663, 0.161746
2023/07/07 00:02:52.880, True, 0.674, 0.163043
2023/07/07 00:02:53.384, True, 0.995, 0.161212
2023/07/07 00:02:53.888, True, 0.663, 0.162051
2023/07/07 00:02:54.383, True, 0.337, 0.163653
2023/07/07 00:02:54.887, True, 0.995, 0.161822
2023/07/07 00:02:55.392, True, 0.663, 0.163577
2023/07/07 00:02:55.888, True, 0.674, 0.161898
2023/07/07 00:02:56.391, True, 0.663, 0.164416
2023/07/07 00:02:56.896, True, 0.663, 0.159838
2023/07/07 00:02:57.392, True, 0.674, 0.163500
2023/07/07 00:02:57.896, True, 0.663, 0.161822
2023/07/07 00:02:58.400, True, 0.663, 0.162203
2023/07/07 00:02:58.896, True, 0.674, 0.162585
2023/07/07 00:02:59.400, True, 0.663, 0.160525
2023/07/07 00:02:59.904, True, 0.663, 0.163043
2023/07/07 00:03:00.400, True, 0.674, 0.161822
2023/07/07 00:03:00.904, True, 0.663, 0.162661
2023/07/07 00:03:01.407, True, 0.663, 0.162814
2023/07/07 00:03:01.904, True, 0.674, 0.163195
2023/07/07 00:03:02.408, True, 0.663, 0.163882
2023/07/07 00:03:02.912, True, 0.995, 0.161364
2023/07/07 00:03:03.408, True, 0.674, 0.163424
2023/07/07 00:03:03.912, True, 0.663, 0.162890
2023/07/07 00:03:04.416, True, 0.663, 0.162432
2023/07/07 00:03:04.912, True, 0.674, 0.163729
2023/07/07 00:03:05.416, True, 0.663, 0.162585
2023/07/07 00:03:05.920, True, 0.663, 0.162814
2023/07/07 00:03:06.416, True, 0.674, 0.163882
2023/07/07 00:03:06.920, True, 0.663, 0.161975
2023/07/07 00:03:07.424, True, 0.663, 0.161288
2023/07/07 00:03:07.920, True, 1.011, 0.163806
2023/07/07 00:03:08.424, True, 0.663, 0.161593
2023/07/07 00:03:08.928, True, 0.663, 0.160678
2023/07/07 00:03:09.424, True, 0.674, 0.162127
2023/07/07 00:03:09.928, True, 0.664, 0.162966
2023/07/07 00:03:10.432, True, 0.663, 0.161669
2023/07/07 00:03:10.928, True, 0.673, 0.163119
2023/07/07 00:03:11.432, True, 0.663, 0.162509
2023/07/07 00:03:11.936, True, 0.663, 0.160983
2023/07/07 00:03:12.432, True, 0.674, 0.163806
2023/07/07 00:03:12.935, True, 0.995, 0.162966
2023/07/07 00:03:13.440, True, 0.663, 0.161822
2023/07/07 00:03:13.936, True, 0.337, 0.160601
2023/07/07 00:03:14.440, True, 0.995, 0.160449
2023/07/07 00:03:14.936, True, 0.674, 0.161746
2023/07/07 00:03:15.440, True, 0.663, 0.164340
2023/07/07 00:03:15.944, True, 0.663, 0.162432
2023/07/07 00:03:16.448, True, 0.663, 0.161288
2023/07/07 00:03:16.944, True, 0.674, 0.162280
2023/07/07 00:03:17.448, True, 0.664, 0.165408
2023/07/07 00:03:17.952, True, 0.662, 0.162127
2023/07/07 00:03:18.448, True, 0.674, 0.161593
2023/07/07 00:03:18.952, True, 0.663, 0.165408
2023/07/07 00:03:19.456, True, 0.663, 0.162203
2023/07/07 00:03:19.960, True, 0.663, 0.160067
2023/07/07 00:03:20.456, True, 0.674, 0.162051
2023/07/07 00:03:20.960, True, 0.663, 0.162966
2023/07/07 00:03:21.464, True, 0.663, 0.163653
2023/07/07 00:03:21.960, True, 0.674, 0.162432
2023/07/07 00:03:22.464, True, 0.663, 0.161212
2023/07/07 00:03:22.960, True, 0.674, 0.161288
2023/07/07 00:03:23.464, True, 0.995, 0.161593
2023/07/07 00:03:23.968, True, 0.663, 0.162203
2023/07/07 00:03:24.464, True, 0.674, 0.162356
2023/07/07 00:03:24.968, True, 0.663, 0.160067
2023/07/07 00:03:25.472, True, 0.663, 0.163958
2023/07/07 00:03:25.968, True, 0.674, 0.161364
2023/07/07 00:03:26.472, True, 0.663, 0.161975
2023/07/07 00:03:26.976, True, 0.663, 0.162051
2023/07/07 00:03:27.480, True, 0.663, 0.161593
2023/07/07 00:03:27.976, True, 0.674, 0.162432
2023/07/07 00:03:28.480, True, 0.663, 0.161593
2023/07/07 00:03:28.983, True, 0.663, 0.164263
2023/07/07 00:03:29.480, True, 1.011, 0.164797
2023/07/07 00:03:29.984, True, 0.663, 0.162585
2023/07/07 00:03:30.488, True, 0.332, 0.163729
2023/07/07 00:03:30.984, True, 0.674, 0.162280
2023/07/07 00:03:31.488, True, 0.995, 0.163272
2023/07/07 00:03:31.992, True, 0.663, 0.163195
2023/07/07 00:03:32.496, True, 0.663, 0.164111
2023/07/07 00:03:32.992, True, 0.674, 0.161975
2023/07/07 00:03:33.496, True, 0.664, 0.161212
2023/07/07 00:03:33.000, True, 0.663, 0.163195
2023/07/07 00:03:34.496, True, 0.674, 0.163195
2023/07/07 00:03:34.000, True, 0.663, 0.162127
2023/07/07 00:03:35.504, True, 0.663, 0.159686
2023/07/07 00:03:35.000, True, 0.674, 0.160296
2023/07/07 00:03:36.503, True, 0.663, 0.159380
2023/07/07 00:03:37.008, True, 0.996, 0.162356
2023/07/07 00:03:37.504, True, 0.673, 0.162051
2023/07/07 00:03:38.007, True, 0.663, 0.159609
2023/07/07 00:03:38.511, True, 0.663, 0.162509
2023/07/07 00:03:39.008, True, 0.675, 0.161440
2023/07/07 00:03:39.512, True, 0.663, 0.162585
2023/07/07 00:03:40.015, True, 0.663, 0.165789
2023/07/07 00:03:40.511, True, 0.674, 0.167010
2023/07/07 00:03:41.015, True, 0.663, 0.163653
2023/07/07 00:03:41.519, True, 0.663, 0.158999
2023/07/07 00:03:42.015, True, 0.674, 0.161059
2023/07/07 00:03:42.520, True, 0.663, 0.160067
2023/07/07 00:03:43.023, True, 0.663, 0.161059
2023/07/07 00:03:43.520, True, 0.674, 0.161364
2023/07/07 00:03:44.023, True, 0.664, 0.162737
2023/07/07 00:03:44.528, True, 0.662, 0.163424
2023/07/07 00:03:45.023, True, 0.674, 0.161975
2023/07/07 00:03:45.528, True, 0.663, 0.161059
2023/07/07 00:03:46.024, True, 0.674, 0.161364
2023/07/07 00:03:46.527, True, 0.664, 0.159380
2023/07/07 00:03:47.032, True, 0.662, 0.163348
2023/07/07 00:03:47.527, True, 0.675, 0.159152
2023/07/07 00:03:48.032, True, 0.662, 0.162203
2023/07/07 00:03:48.535, True, 0.663, 0.159991
2023/07/07 00:03:49.032, True, 0.674, 0.163195
2023/07/07 00:03:49.536, True, 0.663, 0.160983
2023/07/07 00:03:50.040, True, 0.664, 0.162814
2023/07/07 00:03:50.536, True, 1.011, 0.160678
2023/07/07 00:03:51.039, True, 0.663, 0.161593
2023/07/07 00:03:51.544, True, 0.664, 0.162890
2023/07/07 00:03:52.040, True, 0.674, 0.160754
2023/07/07 00:03:52.544, True, 0.663, 0.162203
2023/07/07 00:03:53.040, True, 0.675, 0.161517
2023/07/07 00:03:53.544, True, 0.663, 0.160449
2023/07/07 00:03:54.048, True, 0.663, 0.160906
2023/07/07 00:03:54.544, True, 0.673, 0.161059
2023/07/07 00:03:55.048, True, 0.664, 0.161822
2023/07/07 00:03:55.552, True, 0.663, 0.161975
2023/07/07 00:03:56.047, True, 0.674, 0.160525
2023/07/07 00:03:56.551, True, 0.663, 0.160983
2023/07/07 00:03:57.055, True, 0.663, 0.160220
2023/07/07 00:03:57.552, True, 0.674, 0.159762
2023/07/07 00:03:58.056, True, 0.663, 0.161746
2023/07/07 00:03:58.560, True, 0.662, 0.159380
2023/07/07 00:03:59.064, True, 0.664, 0.165713
2023/07/07 00:03:59.560, True, 0.673, 0.159533
2023/07/07 00:04:00.064, True, 0.664, 0.160601
2023/07/07 00:04:00.568, True, 0.662, 0.161364
2023/07/07 00:04:01.064, True, 1.011, 0.161898
2023/07/07 00:04:01.568, True, 0.663, 0.161669
2023/07/07 00:04:02.072, True, 0.664, 0.161364
2023/07/07 00:04:02.576, True, 0.662, 0.161288
2023/07/07 00:04:03.072, True, 0.674, 0.161593
2023/07/07 00:04:03.575, True, 0.663, 0.161364
2023/07/07 00:04:04.080, True, 0.663, 0.162127
2023/07/07 00:04:04.576, True, 0.674, 0.161746
2023/07/07 00:04:05.080, True, 0.664, 0.160754
2023/07/07 00:04:05.576, True, 0.674, 0.160830
2023/07/07 00:04:06.080, True, 0.663, 0.161440
2023/07/07 00:04:06.583, True, 0.665, 0.159991
2023/07/07 00:04:07.080, True, 0.673, 0.159762
2023/07/07 00:04:07.584, True, 0.663, 0.162203
2023/07/07 00:04:08.088, True, 0.663, 0.161212
2023/07/07 00:04:08.583, True, 0.674, 0.159991
2023/07/07 00:04:09.088, True, 0.663, 0.158770
2023/07/07 00:04:09.592, True, 0.663, 0.162051